Total_Precipitation_Accumulation
2.32 2.28 2.24 2.27 2.17 2.28 2.33 2.29 2.05 1.87 1.76 1.59 1.42 1.46 1.58 1.58 1.63 1.69 1.92 2.00 1.89 2.08 2.51 2.88 2.91 2.92 2.88 2.79 2.71 2.65 2.54 2.50 2.37 2.16 1.85 1.67 1.62 1.50 1.45 1.45 1.50 1.49 1.44
2.68 2.65 2.73 2.72 2.48 2.46 2.55 2.63 2.51 2.30 2.02 1.83 1.64 1.62 1.65 1.62 1.69 1.83 1.99 2.11 2.06 2.02 2.39 2.86 3.11 3.28 3.28 3.27 3.10 2.83 2.63 2.52 2.48 2.37 2.19 1.94 1.79 1.68 1.63 1.57 1.53 1.47 1.42
3.00 2.97 3.12 3.10 2.77 2.68 2.81 2.90 2.87 2.75 2.35 2.07 1.95 1.92 1.89 1.92 1.85 1.93 2.14 2.26 2.22 2.18 2.36 2.52 2.75 2.97 3.14 3.28 3.32 3.14 2.91 2.65 2.50 2.43 2.41 2.31 2.11 1.92 1.79 1.70 1.65 1.57 1.46
3.06 3.15 3.07 2.90 2.84 2.90 3.15 3.35 3.28 3.19 2.93 2.65 2.42 2.15 1.97 1.97 1.93 2.08 2.17 2.26 2.54 2.47 2.40 2.24 2.33 2.56 2.82 3.14 3.40 3.42 3.29 3.07 2.75 2.55 2.48 2.40 2.23 2.02 1.86 1.74 1.70 1.64 1.56
3.18 3.33 3.36 3.29 3.22 3.25 3.32 3.23 3.39 3.25 3.30 3.08 2.62 2.37 2.15 2.06 2.10 2.16 2.24 2.26 2.40 2.54 2.50 2.28 2.21 2.35 2.51 2.83 3.10 3.38 3.49 3.37 3.10 2.83 2.66 2.54 2.37 2.19 2.03 1.92 1.81 1.71 1.62
3.48 3.60 3.56 3.61 3.68 3.74 3.57 3.48 3.50 3.30 3.15 3.07 2.69 2.48 2.32 2.16 2.13 2.11 2.06 2.11 2.22 2.18 2.26 2.26 2.28 2.15 2.26 2.43 2.68 3.10 3.51 3.62 3.50 3.25 3.05 2.91 2.64 2.35 2.12 2.02 1.95 1.88 1.79
4.08 4.10 4.12 4.10 3.97 3.88 3.73 3.55 3.45 3.34 3.10 2.91 2.85 2.53 2.15 1.88 1.79 1.75 1.79 1.88 1.88 1.89 2.01 2.19 2.30 2.24 2.10 2.09 2.26 2.71 3.30 3.62 3.65 3.50 3.32 3.20 2.90 2.53 2.27 2.09 1.99 1.94 1.87
4.79 4.58 4.54 4.33 4.04 3.86 3.72 3.52 3.38 3.22 2.95 2.81 2.77 2.74 2.31 1.94 1.62 1.43 1.51 1.52 1.58 1.75 1.85 1.83 1.90 1.93 1.87 1.89 1.84 2.10 2.41 2.72 3.04 3.29 3.39 3.26 3.04 2.78 2.53 2.37 2.27 2.21 2.12
4.83 4.58 4.33 4.19 4.02 3.84 3.66 3.55 3.43 3.29 3.03 2.83 2.71 2.87 2.70 2.33 1.89 1.66 1.50 1.50 1.58 1.66 1.66 1.64 1.62 1.62 1.67 1.76 1.79 1.87 2.03 2.19 2.48 2.78 3.04 3.07 2.96 2.81 2.68 2.61 2.57 2.58 2.55
4.48 4.07 3.86 3.89 3.76 3.56 3.35 3.10 2.98 2.93 2.85 2.72 2.65 2.54 2.53 2.45 2.25 1.98 1.76 1.75 1.79 1.75 1.68 1.65 1.72 1.78 1.78 1.85 1.83 1.70 1.70 1.75 1.99 2.24 2.53 2.65 2.61 2.59 2.61 2.74 2.86 2.96 2.96
3.90 3.63 3.45 3.52 3.42 3.18 2.97 2.70 2.48 2.37 2.34 2.40 2.44 2.41 2.35 2.29 2.11 1.99 1.86 1.77 1.76 1.73 1.68 1.65 1.70 1.79 1.80 1.75 1.69 1.64 1.65 1.63 1.76 1.92 2.09 2.34 2.46 2.51 2.58 2.72 2.87 2.97 3.03
3.30 2.98 2.70 2.63 2.55 2.40 2.29 2.24 2.16 2.10 2.07 2.13 2.16 2.10 2.09 2.10 2.05 2.04 1.95 1.78 1.76 1.83 1.72 1.60 1.53 1.51 1.54 1.60 1.60 1.72 1.64 1.62 1.67 1.74 1.72 1.76 1.94 2.15 2.32 2.46 2.54 2.72 2.91
2.64 2.33 2.11 2.00 1.95 1.94 1.90 1.91 1.90 1.88 1.82 1.84 1.84 1.83 1.82 1.78 1.80 1.94 2.08 2.02 1.90 1.77 1.72 1.63 1.47 1.43 1.42 1.46 1.62 1.73 1.59 1.51 1.56 1.58 1.48 1.42 1.49 1.63 1.74 1.89 2.08 2.28 2.50
2.08 1.96 1.82 1.69 1.63 1.68 1.70 1.76 1.70 1.61 1.54 1.54 1.50 1.53 1.58 1.54 1.65 1.84 1.98 2.16 2.15 1.90 1.67 1.58 1.48 1.41 1.43 1.46 1.63 1.65 1.46 1.38 1.34 1.39 1.39 1.33 1.29 1.31 1.36 1.43 1.54 1.64 1.82
1.63 1.59 1.56 1.51 1.43 1.39 1.37 1.34 1.31 1.31 1.35 1.37 1.34 1.34 1.35 1.36 1.46 1.61 1.75 2.00 2.21 2.10 1.79 1.55 1.52 1.47 1.42 1.51 1.71 1.45 1.34 1.36 1.23 1.14 1.14 1.13 1.15 1.18 1.17 1.14 1.15 1.21 1.29
1.26 1.29 1.24 1.21 1.24 1.26 1.18 1.11 1.09 1.12 1.15 1.21 1.26 1.22 1.20 1.20 1.25 1.32 1.43 1.61 1.87 2.02 1.87 1.52 1.45 1.36 1.31 1.29 1.53 1.34 1.33 1.35 1.14 1.00 0.93 0.93 0.96 1.02 1.02 0.97 0.99 1.02 1.07
1.09 1.07 1.05 1.03 1.02 1.02 1.00 1.04 1.03 1.04 1.10 1.13 1.13 1.14 1.13 1.16 1.21 1.18 1.25 1.38 1.55 1.75 1.86 1.66 1.49 1.39 1.33 1.37 1.40 1.29 1.22 1.13 1.04 1.01 0.88 0.82 0.83 0.90 0.91 0.88 0.91 0.93 0.95
0.97 0.98 0.99 0.94 0.85 0.84 0.91 0.98 1.00 0.98 1.06 1.07 1.07 1.13 1.12 1.14 1.17 1.16 1.22 1.30 1.44 1.63 1.77 1.81 1.63 1.49 1.41 1.37 1.38 1.31 1.08 0.99 0.99 1.08 0.92 0.82 0.76 0.76 0.84 0.81 0.81 0.85 0.91
0.95 0.93 0.89 0.87 0.85 0.81 0.83 0.83 0.84 0.85 0.92 0.99 1.02 1.08 1.12 1.15 1.13 1.14 1.18 1.24 1.36 1.48 1.66 1.74 1.67 1.56 1.48 1.41 1.47 1.35 1.21 1.27 1.08 1.04 0.95 0.87 0.81 0.80 1.01 1.02 0.80 0.77 0.82
0.86 0.85 0.78 0.77 0.82 0.80 0.73 0.68 0.69 0.74 0.82 0.86 0.87 0.99 1.05 1.07 1.06 1.13 1.18 1.23 1.30 1.46 1.58 1.65 1.58 1.49 1.45 1.44 1.50 1.52 1.45 1.39 1.26 1.00 1.00 0.95 0.91 0.93 1.25 1.74 1.22 0.90 0.85
0.80 0.80 0.74 0.69 0.74 0.72 0.66 0.66 0.67 0.67 0.73 0.74 0.77 0.85 0.91 0.92 0.91 0.97 0.99 1.10 1.24 1.39 1.48 1.56 1.54 1.49 1.42 1.50 1.53 1.48 1.45 1.42 1.29 1.14 1.13 1.03 1.15 1.42 1.93 2.54 2.05 1.41 1.16
0.87 0.83 0.77 0.72 0.71 0.66 0.66 0.61 0.59 0.62 0.69 0.76 0.82 0.84 0.80 0.80 0.77 0.73 0.78 0.88 1.05 1.26 1.45 1.54 1.51 1.49 1.44 1.47 1.57 1.55 1.52 1.53 1.49 1.23 1.18 1.15 1.36 2.08 2.72 3.02 2.56 1.74 1.40
0.98 0.88 0.78 0.75 0.71 0.64 0.57 0.48 0.48 0.54 0.70 0.82 0.89 0.85 0.74 0.70 0.81 0.81 0.80 0.82 0.94 1.07 1.30 1.53 1.58 1.47 1.44 1.49 1.64 1.70 1.62 1.59 1.55 1.34 1.35 1.38 1.60 2.39 2.64 2.76 2.57 1.81 1.50
0.92 0.87 0.79 0.74 0.68 0.52 0.46 0.45 0.48 0.52 0.64 0.69 0.71 0.77 0.85 0.87 0.81 0.83 0.82 0.92 1.01 1.11 1.18 1.31 1.51 1.44 1.38 1.47 1.59 1.63 1.57 1.51 1.42 1.32 1.35 1.51 1.72 2.24 2.24 2.35 2.38 1.86 1.56
0.88 0.80 0.74 0.71 0.66 0.54 0.50 0.49 0.52 0.56 0.61 0.57 0.53 0.58 0.64 0.69 0.70 0.77 0.87 1.04 1.09 1.20 1.21 1.37 1.40 1.34 1.34 1.37 1.32 1.37 1.59 1.71 1.59 1.33 1.24 1.41 1.63 1.92 1.96 2.05 1.99 1.81 1.63
0.83 0.69 0.62 0.63 0.60 0.58 0.53 0.47 0.46 0.49 0.57 0.54 0.56 0.63 0.61 0.55 0.60 0.72 0.91 1.12 1.27 1.31 1.39 1.56 1.54 1.51 1.42 1.38 1.27 1.28 1.57 1.77 1.72 1.47 1.21 1.28 1.44 1.61 1.84 1.82 1.68 1.57 1.62